Temp
40 43 43 42 42 44 42 42 34 41 44 51 55 57 60 62 63 63 63 64 65 67 69 70 70 71 71 71 72 72 71 72 72 71 69 71 71 67 65 66 67 70 65 62
29 41 43 40 43 44 45 45 45 46 46 58 60 62 61 61 62 62 63 64 66 67 68 68 69 70 70 69 70 71 70 69 70 71 67 63 60 64 64 64 64 65 59 58
26 39 38 29 39 44 46 49 48 41 50 58 57 58 59 60 62 61 63 64 65 66 67 68 69 70 69 70 71 70 69 69 68 67 65 60 55 53 52 52 55 54 54 54
27 32 20 40 51 50 46 48 52 52 55 57 58 60 62 64 62 62 63 64 65 67 67 69 69 69 69 71 70 69 69 69 69 67 62 41 52 47 44 48 48 49 48 49
25 28 35 42 47 46 44 44 53 52 55 57 58 59 58 64 63 61 61 63 65 67 67 67 67 68 68 68 69 68 69 69 69 68 65 47 39 38 36 37 38 38 46 46
29 22 22 41 50 55 52 35 54 55 54 53 55 44 52 60 60 60 61 62 63 65 66 65 66 67 66 66 66 66 67 68 69 68 67 62 46 38 38 43 38 41 38 41
28 26 34 48 53 55 32 37 51 53 53 52 48 50 55 59 59 62 61 61 63 64 64 64 66 65 63 64 64 66 67 67 67 67 66 66 47 43 43 41 41 40 39 41
29 26 25 51 50 38 46 52 53 53 53 51 52 53 54 57 58 60 61 62 63 62 62 64 65 65 63 63 65 66 66 65 64 64 63 58 44 41 40 40 40 40 40 39
35 34 48 52 50 54 55 51 51 51 52 53 51 53 55 55 57 59 61 62 64 62 62 64 65 65 62 63 65 63 62 60 60 58 56 51 40 37 38 39 39 39 39 38
38 44 47 50 54 55 54 53 54 55 54 53 51 53 53 54 55 57 60 62 63 62 61 61 64 65 64 64 64 62 60 58 52 41 42 40 41 38 38 38 37 37 37 36
38 44 47 50 52 53 54 55 53 53 52 52 52 51 52 53 55 56 58 60 62 61 61 61 63 63 64 64 63 61 59 55 51 48 42 37 38 39 38 39 40 38 38 37
36 47 46 47 53 55 53 52 52 49 49 51 50 49 51 51 53 55 55 57 59 61 61 62 62 63 64 65 65 60 54 50 43 40 39 38 37 35 36 37 37 37 38 37
47 53 52 53 55 56 51 51 52 50 50 46 47 48 47 46 47 48 51 51 53 53 54 55 56 57 59 59 57 55 55 57 42 38 37 36 35 35 33 34 36 36 36 36
55 53 47 51 47 53 52 53 51 50 48 46 47 46 44 43 44 44 44 45 46 45 45 46 46 47 50 52 51 51 52 45 43 40 38 36 36 35 35 34 33 33 34 35
53 54 52 52 53 53 51 50 46 44 45 44 42 39 39 37 37 38 41 44 44 42 41 42 43 44 47 47 45 44 45 44 41 39 38 37 36 35 35 34 33 33 33 33
52 51 51 48 46 47 46 44 40 40 41 39 37 36 37 39 39 40 42 42 37 35 36 36 37 40 42 42 43 43 41 36 37 37 36 35 35 34 34 34 33 32 32 32
45 43 42 41 41 41 39 40 39 39 37 36 35 37 37 37 38 38 36 36 35 34 34 34 33 36 36 38 38 36 36 35 35 35 35 35 35 34 34 33 33 33 33 33
49 46 43 42 40 39 39 39 39 38 35 35 36 35 34 34 33 33 33 34 34 33 33 33 33 33 33 34 35 34 34 34 35 35 34 34 34 35 34 34 33 32 32 33
48 44 43 43 41 39 37 37 36 35 33 35 35 33 33 33 33 32 33 32 32 31 32 33 31 33 33 32 33 34 34 34 34 33 34 33 33 33 33 33 32 32 33 32
47 45 44 43 40 37 35 34 33 33 34 35 34 34 33 33 32 33 33 32 32 32 33 33 34 33 33 32 33 34 34 34 34 33 33 33 33 32 32 33 33 32 33 33
43 43 37 34 33 34 34 33 32 33 33 34 33 33 33 33 33 32 33 33 33 33 34 34 34 34 35 34 34 33 33 33 33 33 33 32 32 32 32 32 32 32 32 32
40 40 35 35 33 33 34 34 33 33 33 34 34 34 34 34 35 34 33 32 34 33 34 34 34 33 34 33 34 33 33 33 33 32 32 32 32 32 32 32 32 32 32 32
42 40 38 36 34 34 35 34 33 32 33 33 33 33 34 35 37 35 32 34 35 34 36 34 33 32 32 34 33 33 33 33 32 33 33 33 32 32 32 32 32 32 32 32
42 41 40 41 42 41 36 34 33 33 33 33 33 33 35 35 35 38 38 35 33 33 33 33 33 33 33 33 33 32 32 32 33 32 33 33 32 32 32 32 32 32 32 32
41 39 39 40 40 41 41 38 35 34 35 36 35 35 36 38 37 37 37 37 34 34 33 33 33 33 33 33 33 33 33 33 33 33 32 32 32 32 32 32 32 32 32 32
41 39 39 40 42 43 42 41 38 37 36 35 34 34 35 37 38 39 37 36 36 34 34 33 33 33 33 33 33 33 33 33 33 33 33 33 32 32 32 32 32 32 32 32
42 36 39 40 42 43 41 40 38 36 36 35 34 34 35 35 35 36 35 34 34 33 33 33 33 33 33 33 33 33 33 33 33 33 33 33 33 32 32 32 32 32 32 32
MSLP
1011.02 1009.94 1009.40 1008.55 1007.82 1007.27 1006.69 1006.19 1005.86 1004.68 1003.09 1002.11 1002.07 1001.84 1001.82 1002.04 1002.34 1002.16 1002.12 1002.27 1002.38 1002.07 1001.79 1001.66 1001.60 1001.63 1001.58 1001.47 1001.30 1001.08 1000.78 1000.44 1000.11 1000.27 1000.20 999.98 999.91 1000.28 1000.38 1000.67 1001.10 1001.57 1002.24 1002.88
1012.10 1010.76 1009.24 1007.97 1007.35 1006.85 1006.21 1005.63 1005.07 1004.05 1002.88 1001.82 1001.34 1001.46 1001.55 1001.75 1001.79 1001.66 1001.71 1001.97 1002.09 1001.96 1001.83 1001.68 1001.57 1001.49 1001.54 1001.58 1001.38 1001.24 1000.87 1000.71 1000.47 1000.24 1000.67 1000.85 1000.84 1000.90 1000.94 1001.01 1001.31 1001.68 1002.18 1002.72
1011.96 1010.41 1009.31 1008.18 1006.90 1005.61 1005.26 1004.84 1004.26 1003.09 1002.30 1001.60 1001.47 1001.46 1001.51 1001.41 1001.40 1001.54 1001.64 1001.78 1001.84 1001.87 1001.76 1001.59 1001.42 1001.35 1001.22 1001.12 1001.14 1000.99 1000.71 1000.51 1000.56 1000.63 1000.72 1001.38 1001.59 1001.56 1001.65 1001.58 1001.66 1001.96 1002.41 1002.71
1012.34 1011.26 1009.04 1006.68 1005.87 1005.53 1005.27 1004.62 1004.03 1003.27 1002.47 1001.89 1001.56 1001.48 1001.40 1001.38 1001.40 1001.46 1001.56 1001.67 1001.66 1001.59 1001.54 1001.47 1001.51 1001.44 1001.25 1001.05 1000.83 1000.65 1000.34 1000.18 1000.17 1000.35 1000.71 1001.50 1001.91 1001.95 1002.04 1002.23 1002.27 1002.33 1002.73 1003.20
1012.24 1010.26 1008.22 1006.54 1004.94 1004.80 1004.46 1003.96 1003.32 1002.74 1002.51 1002.41 1002.32 1002.03 1001.78 1001.61 1001.85 1002.23 1002.34 1002.14 1001.79 1001.74 1001.71 1001.73 1001.58 1001.35 1001.10 1000.77 1000.59 1000.26 999.98 999.88 999.94 1000.08 1000.31 1001.25 1002.02 1002.25 1002.18 1002.34 1002.65 1002.79 1003.03 1003.58
1011.70 1010.10 1007.68 1005.53 1005.02 1005.04 1005.06 1004.29 1002.75 1003.00 1003.03 1002.97 1003.19 1002.92 1002.20 1001.98 1002.65 1002.98 1002.89 1002.84 1002.57 1002.00 1001.91 1001.78 1001.47 1001.16 1000.66 1000.33 1000.20 1000.04 999.82 999.71 999.77 999.96 1000.01 1000.36 1001.64 1002.27 1002.35 1002.45 1002.78 1003.15 1003.43 1003.85
1010.97 1009.61 1007.52 1005.81 1005.18 1005.08 1005.18 1004.96 1004.34 1004.50 1004.25 1003.92 1003.86 1004.05 1003.65 1003.07 1002.58 1002.37 1002.28 1002.16 1002.10 1001.72 1001.32 1001.15 1001.16 1000.74 1000.24 999.98 999.73 999.70 999.67 999.61 999.76 999.84 999.85 1000.00 1001.37 1002.13 1002.45 1002.73 1003.10 1003.59 1003.91 1004.42
1009.99 1008.68 1006.99 1006.00 1005.69 1005.93 1005.63 1005.23 1004.93 1004.66 1004.56 1004.26 1004.19 1003.99 1003.69 1003.04 1002.28 1001.64 1001.12 1000.85 1000.78 1000.57 1000.27 1000.11 1000.14 1000.03 999.64 999.27 999.02 999.22 999.19 999.32 999.49 999.75 1000.03 1000.27 1001.21 1001.98 1002.43 1002.76 1003.06 1003.68 1004.10 1004.49
1009.41 1008.18 1006.68 1006.32 1006.05 1005.83 1005.47 1005.24 1005.28 1004.98 1004.66 1004.32 1003.72 1003.17 1002.83 1002.40 1001.78 1000.93 1000.24 999.77 999.55 999.31 999.06 998.86 998.74 998.69 998.47 998.38 998.64 998.65 998.70 998.86 999.27 999.53 1000.10 1000.34 1001.29 1001.81 1002.48 1002.66 1002.92 1003.26 1003.98 1004.64
1008.49 1007.71 1006.83 1006.16 1005.87 1005.56 1005.31 1005.06 1004.92 1004.84 1004.47 1004.15 1003.36 1002.83 1002.33 1002.05 1001.29 1000.43 999.57 998.67 998.45 998.12 997.82 997.59 997.62 997.54 997.51 997.80 998.11 998.14 998.06 998.21 999.10 999.93 1000.12 1000.50 1000.88 1001.45 1001.93 1002.20 1002.66 1003.06 1003.42 1004.29
1007.85 1007.09 1006.57 1006.06 1005.56 1005.13 1004.80 1004.63 1004.52 1004.34 1004.20 1003.62 1003.11 1002.53 1002.14 1001.42 1000.78 999.91 999.20 998.47 997.59 997.21 996.92 996.71 996.76 996.63 996.69 996.89 997.16 997.25 997.47 997.68 998.33 999.12 999.92 1000.34 1000.56 1000.73 1001.18 1001.40 1001.66 1002.20 1002.78 1003.34
1006.61 1006.23 1005.91 1005.28 1004.93 1004.72 1004.24 1004.06 1004.05 1004.15 1003.91 1003.62 1003.43 1002.71 1002.26 1001.36 1000.74 1000.04 999.10 998.32 997.47 996.66 996.11 995.88 995.82 995.60 995.58 995.75 995.84 995.89 996.38 996.97 998.07 998.90 999.62 1000.04 1000.34 1000.61 1000.96 1001.29 1001.50 1002.02 1002.44 1003.06
1005.65 1005.16 1004.88 1004.55 1004.28 1004.04 1004.04 1004.03 1003.91 1003.90 1003.83 1003.59 1003.46 1003.02 1002.48 1001.85 1001.35 1000.34 999.43 998.68 997.72 997.13 996.74 996.47 996.10 995.69 995.59 995.80 996.01 995.76 995.65 995.77 996.94 997.89 998.88 999.54 999.90 1000.22 1000.77 1001.72 1001.67 1002.01 1002.80 1003.45
1004.93 1004.72 1004.69 1004.52 1004.31 1004.23 1004.25 1003.77 1003.79 1003.93 1003.78 1003.51 1003.07 1002.85 1002.49 1001.84 1001.14 1000.51 999.83 999.29 998.67 998.14 997.62 997.12 996.53 995.84 995.75 995.62 995.51 995.11 994.84 995.08 995.73 996.68 997.97 998.80 999.20 999.63 1000.17 1000.93 1001.61 1002.70 1003.55 1003.61
1004.46 1004.58 1004.67 1004.53 1004.28 1004.08 1004.35 1004.18 1003.98 1003.65 1003.39 1003.18 1003.34 1003.08 1002.57 1001.74 1001.04 1000.43 999.86 999.10 998.39 997.92 997.39 996.89 996.25 995.52 995.34 994.84 994.42 994.31 994.20 994.15 994.66 995.78 996.95 997.90 998.56 999.10 999.66 1000.72 1001.63 1002.60 1003.67 1004.30
1004.72 1004.99 1004.99 1004.92 1005.20 1004.97 1004.85 1004.72 1004.49 1004.10 1003.81 1003.70 1003.41 1002.95 1002.45 1001.77 1001.05 1000.30 999.51 998.90 998.59 997.96 997.47 996.84 996.03 995.16 994.64 994.06 993.51 993.35 993.45 993.91 994.55 995.53 996.54 997.45 998.16 998.77 999.19 1000.29 1001.37 1002.17 1003.22 1003.98
1005.29 1005.25 1005.71 1005.73 1005.62 1005.40 1005.41 1005.17 1004.84 1004.43 1004.12 1003.78 1003.34 1002.92 1002.38 1001.74 1000.98 1000.36 999.97 999.39 998.78 998.26 997.77 997.05 996.28 995.43 994.57 994.09 993.71 993.78 993.82 994.14 994.53 995.27 996.08 996.87 997.69 998.32 998.73 999.73 1000.87 1001.84 1002.94 1004.05
1005.98 1006.27 1006.48 1006.29 1006.01 1005.77 1005.40 1005.17 1004.84 1004.56 1004.29 1003.88 1003.43 1002.98 1002.44 1001.93 1001.39 1000.76 1000.20 999.58 998.93 998.41 997.98 997.36 996.63 995.80 995.04 994.60 994.35 994.39 994.56 994.78 994.99 995.40 996.04 996.83 997.68 998.33 998.92 999.74 1000.77 1001.82 1003.26 1004.53
1006.15 1006.39 1006.38 1006.36 1006.31 1006.22 1005.86 1005.39 1005.02 1004.68 1004.29 1003.90 1003.48 1003.08 1002.74 1002.31 1001.79 1001.19 1000.56 999.94 999.28 998.77 998.23 997.62 997.05 996.34 995.80 995.39 995.04 994.98 995.09 995.27 995.70 995.98 996.42 997.22 998.05 998.66 999.43 1000.11 1000.93 1002.10 1003.37 1004.72
1006.13 1006.45 1006.44 1006.54 1006.78 1006.67 1006.10 1005.68 1005.19 1004.66 1004.33 1003.97 1003.65 1003.32 1002.94 1002.55 1002.08 1001.44 1000.84 1000.37 1000.00 999.58 998.90 998.28 997.67 997.18 996.75 996.28 995.97 995.82 995.88 996.04 996.35 996.70 997.17 997.72 998.29 999.20 1000.18 1000.62 1001.25 1002.35 1003.69 1004.94
1006.57 1006.60 1007.01 1007.22 1006.98 1006.63 1006.27 1005.82 1005.24 1004.80 1004.45 1004.21 1003.92 1003.68 1003.38 1003.02 1002.64 1002.07 1001.31 1000.85 1000.56 1000.09 999.54 998.98 998.48 998.09 997.73 997.39 997.02 996.95 997.05 997.16 997.40 997.67 997.96 998.53 999.38 1000.04 1000.66 1001.07 1001.86 1003.08 1004.56 1005.81
1006.81 1006.70 1006.89 1006.93 1006.86 1006.51 1006.21 1005.88 1005.41 1005.06 1004.69 1004.41 1004.19 1003.90 1003.52 1003.15 1002.76 1002.58 1002.41 1001.91 1001.27 1000.71 1000.22 999.90 999.57 999.19 998.82 998.49 998.33 998.16 998.06 998.18 998.32 998.60 999.04 999.61 1000.16 1000.92 1001.57 1001.96 1003.03 1004.30 1005.36 1006.59
1006.55 1006.61 1006.57 1006.47 1006.51 1006.29 1006.06 1005.86 1005.53 1005.25 1004.96 1004.67 1004.53 1004.24 1003.91 1003.62 1003.32 1002.97 1002.75 1002.76 1002.32 1001.85 1001.37 1001.08 1000.69 1000.25 999.94 999.72 999.55 999.45 999.46 999.54 999.71 999.93 1000.38 1000.83 1001.39 1001.88 1002.50 1003.09 1004.05 1005.44 1006.14 1007.56
1006.37 1006.41 1006.26 1006.14 1005.80 1005.41 1005.59 1005.64 1005.55 1005.36 1005.21 1004.95 1004.79 1004.63 1004.22 1003.86 1003.72 1003.57 1003.51 1003.40 1003.12 1002.79 1002.46 1002.10 1001.70 1001.36 1001.11 1000.95 1000.81 1000.70 1000.73 1000.82 1001.03 1001.37 1001.75 1002.13 1002.62 1003.17 1003.81 1004.56 1005.42 1006.37 1007.23 1008.13
1006.39 1006.26 1006.05 1005.77 1005.32 1004.90 1005.05 1005.37 1005.37 1005.31 1005.14 1004.89 1004.78 1004.68 1004.49 1004.23 1004.05 1004.04 1003.90 1003.76 1003.68 1003.43 1003.20 1002.94 1002.58 1002.26 1002.11 1002.03 1001.99 1001.96 1002.00 1002.11 1002.28 1002.58 1003.04 1003.48 1003.97 1004.52 1005.18 1005.89 1006.66 1007.40 1008.26 1009.11
1005.96 1005.98 1005.84 1005.55 1005.13 1004.91 1004.90 1005.01 1005.07 1005.14 1005.15 1005.02 1004.98 1004.94 1004.80 1004.66 1004.56 1004.40 1004.37 1004.29 1004.23 1004.13 1003.94 1003.73 1003.43 1003.12 1003.00 1002.97 1003.04 1003.09 1003.16 1003.23 1003.38 1003.79 1004.15 1004.65 1005.21 1005.79 1006.40 1007.06 1007.73 1008.41 1009.14 1009.90
1005.16 1005.66 1005.60 1005.15 1004.82 1004.72 1004.88 1005.00 1005.09 1005.13 1005.14 1005.16 1005.17 1005.17 1005.07 1004.98 1004.91 1004.84 1004.84 1004.87 1004.83 1004.72 1004.56 1004.34 1004.17 1004.02 1003.95 1003.96 1003.99 1004.10 1004.17 1004.41 1004.61 1004.89 1005.34 1005.80 1006.29 1006.80 1007.32 1007.97 1008.64 1009.32 1009.92 1010.54
Wind_Speed
16 19 17 18 18 16 16 14 13 17 24 20 16 15 16 14 14 15 11 10 11 13 11 10 9 8 9 9 9 9 10 10 9 8 9 10 4 5 7 10 11 15 11 9
15 18 18 17 17 18 19 19 19 21 23 21 21 17 15 15 14 13 10 12 13 12 11 12 12 9 8 10 10 10 10 10 10 8 7 8 5 6 8 9 9 11 11 13
14 12 14 13 17 14 16 18 19 20 21 20 17 17 18 17 16 15 15 15 15 15 14 13 12 11 12 11 11 11 11 10 9 10 8 7 4 3 3 5 7 8 9 11
10 13 13 6 4 9 13 16 17 18 17 18 18 17 17 15 15 16 15 16 15 14 13 12 12 14 14 14 13 13 12 12 9 9 6 3 5 5 4 3 5 7 7 9
6 11 15 18 10 6 12 14 14 13 12 14 13 15 13 12 11 14 15 17 11 12 11 14 16 15 15 15 14 15 14 12 11 10 8 5 4 4 3 4 3 3 8 10
9 9 8 2 5 7 8 13 4 7 8 12 14 14 15 21 19 17 16 14 18 15 14 16 17 18 17 17 16 16 15 13 12 12 11 6 6 4 2 4 2 5 4 6
12 13 11 9 11 12 9 9 18 15 17 21 19 16 23 23 23 22 21 20 20 21 19 19 18 18 19 18 17 16 15 14 13 13 12 10 5 4 5 6 7 7 8 7
7 9 14 9 9 9 14 21 23 24 24 24 23 22 22 24 24 22 22 22 20 19 19 19 20 18 20 21 15 14 15 14 13 12 9 2 7 6 6 8 9 9 9 9
15 12 25 22 21 21 20 19 20 22 21 22 24 24 23 22 24 24 24 21 20 19 20 19 20 18 19 18 15 13 12 12 12 9 9 5 7 7 6 8 8 9 9 8
17 18 22 20 20 23 21 18 20 22 23 23 25 25 24 21 19 21 23 20 19 19 19 19 17 19 18 16 16 15 14 12 8 6 6 5 5 7 8 8 8 9 10 9
20 21 22 20 21 19 22 21 23 20 22 23 24 24 22 21 24 20 21 23 19 19 18 20 18 19 18 15 15 17 16 12 8 7 7 7 7 8 8 9 10 11 10 12
16 18 18 20 20 23 23 22 20 19 21 23 24 25 24 23 23 23 21 20 21 22 20 21 20 21 20 18 18 17 15 10 6 6 5 6 6 4 2 6 9 8 12 13
17 18 19 20 22 22 19 19 21 20 21 23 23 22 22 19 21 24 23 21 20 18 17 18 19 20 18 17 17 17 16 13 8 8 7 7 7 8 7 4 11 14 16 19
16 13 17 18 16 19 20 20 19 20 19 18 18 18 18 18 18 18 18 19 19 18 20 20 20 19 16 18 19 21 21 19 11 9 8 8 8 8 8 10 10 9 17 21
11 11 14 17 18 17 19 18 20 18 17 17 15 16 15 16 15 14 16 17 17 15 15 16 17 18 17 17 17 17 14 9 8 8 9 9 8 9 10 10 11 12 10 12
14 13 15 16 17 17 18 19 19 18 18 15 15 14 13 13 14 16 15 14 13 11 12 12 13 13 11 9 11 9 8 10 9 8 8 9 9 10 11 11 11 11 11 13
13 14 14 15 16 17 18 16 16 16 15 14 12 13 13 13 14 13 11 10 9 8 9 9 9 9 6 4 1 2 3 6 9 9 9 9 9 10 11 12 11 11 11 12
9 9 11 13 15 17 17 16 14 15 11 10 10 10 10 10 11 10 9 9 7 6 8 8 7 5 5 4 4 3 3 5 7 8 8 9 9 9 10 12 12 12 12 12
10 11 13 13 13 15 16 15 14 12 9 7 8 9 9 8 8 8 8 8 8 8 9 8 8 7 7 6 5 3 4 6 6 6 7 11 9 9 10 12 14 15 14 13
10 10 12 14 14 12 14 12 11 9 6 6 6 7 8 8 9 9 7 8 9 6 8 9 8 8 8 8 8 5 6 7 7 8 8 10 11 11 11 15 16 15 15 13
13 11 9 10 9 9 9 10 9 7 6 5 6 6 6 6 8 10 9 8 12 11 9 10 8 6 6 6 7 7 7 8 8 9 9 10 11 11 12 13 15 14 13 12
9 9 6 8 8 9 9 8 7 6 5 5 5 5 6 7 3 4 7 9 7 12 8 8 7 10 8 9 6 7 8 9 8 9 9 10 11 11 11 14 13 12 13 12
9 8 9 4 7 8 6 6 6 7 5 5 6 6 5 5 7 7 7 10 7 10 7 7 10 11 10 8 8 8 9 9 9 9 9 10 10 11 11 12 12 12 12 11
10 8 9 10 9 7 8 7 5 5 5 4 3 4 4 3 4 4 4 6 7 8 7 8 9 11 9 6 7 8 8 9 9 9 10 12 10 11 11 12 12 11 11 13
9 8 8 9 9 6 6 4 4 3 5 4 4 3 4 4 4 4 4 5 7 6 6 9 10 10 7 7 7 8 8 8 9 10 10 10 10 10 10 10 11 11 11 11
9 8 7 10 8 7 6 5 4 2 3 3 2 3 3 3 3 4 5 6 7 8 6 5 6 7 7 7 8 8 8 9 9 9 10 10 10 10 10 11 10 10 10 10
6 5 7 7 6 5 4 5 4 4 3 2 1 2 2 2 3 4 5 5 5 5 5 5 6 7 7 7 7 7 7 7 8 9 8 9 9 9 9 9 9 9 9 9
Wind_Direction
314 316 312 300 293 288 282 265 251 268 277 285 289 304 305 311 290 283 284 277 291 302 309 309 312 315 311 324 320 328 322 321 310 296 311 312 239 199 175 185 192 199 183 171
301 286 277 278 288 293 280 274 274 277 274 284 287 285 281 283 279 278 274 268 281 279 281 296 299 295 306 300 307 316 315 318 314 304 300 296 313 242 207 196 192 196 180 164
282 297 324 293 267 266 257 259 266 273 282 288 291 297 294 292 290 291 286 283 281 280 285 287 290 303 293 302 307 299 305 305 316 311 303 282 251 202 239 188 171 171 170 164
282 291 266 261 304 296 276 273 282 287 280 284 299 306 303 302 304 292 283 287 286 278 279 290 303 300 299 293 297 294 292 299 300 303 288 214 241 203 185 179 178 162 158 156
258 263 279 285 283 355 322 312 305 283 282 293 316 323 295 290 15 5 349 333 291 288 298 299 298 294 294 288 289 289 285 286 297 304 293 172 220 216 186 140 154 159 161 154
268 285 281 298 341 354 307 297 317 287 286 320 329 312 308 324 331 308 300 296 299 285 285 286 290 295 289 287 286 287 287 285 288 292 293 267 201 193 191 145 131 129 94 133
251 255 267 280 305 312 259 295 337 319 312 314 312 310 305 304 302 298 290 282 274 272 271 269 274 279 277 276 273 280 284 283 280 282 290 286 164 163 153 139 138 140 132 140
261 257 264 324 341 337 317 307 308 310 306 301 299 295 291 292 291 289 288 283 275 271 267 264 265 262 263 267 269 270 272 270 268 272 291 177 161 162 158 158 151 158 158 145
275 277 300 300 299 294 299 305 304 299 297 298 294 292 292 293 291 291 289 285 277 271 268 263 262 257 256 255 266 271 272 264 262 268 280 164 165 160 166 169 166 160 167 160
279 273 279 285 296 295 293 298 300 301 299 294 289 293 296 296 291 290 290 288 282 278 273 269 264 260 255 254 260 265 263 256 220 238 244 181 172 174 178 178 176 172 166 164
289 289 287 287 287 297 298 302 298 297 300 298 297 294 292 294 293 291 290 290 283 273 270 269 268 265 262 255 247 246 256 257 233 230 210 192 197 183 191 196 184 177 177 163
276 283 287 286 292 289 294 301 306 308 303 301 301 298 299 298 297 295 292 294 288 283 279 276 272 270 264 257 251 245 240 236 203 205 194 198 188 150 163 175 150 147 151 155
282 292 287 288 292 302 305 308 308 304 303 303 299 293 297 292 294 293 288 291 293 303 307 302 296 291 290 289 285 281 275 259 191 170 180 186 181 173 150 105 129 136 139 140
286 308 306 298 302 312 302 298 317 304 299 294 295 304 298 292 290 288 289 293 297 298 294 289 282 275 272 266 264 262 258 251 180 169 182 187 183 170 155 153 146 140 141 142
313 305 311 304 298 318 321 314 308 304 306 312 309 299 298 295 293 292 287 285 290 291 289 286 281 278 277 265 249 245 252 208 165 164 177 179 170 161 150 148 147 143 144 140
324 316 311 326 318 312 319 313 309 306 307 310 303 305 303 302 305 303 303 313 311 301 300 294 285 281 277 270 250 240 206 163 162 160 161 165 165 162 149 149 150 148 152 150
317 322 328 318 319 323 319 312 307 306 308 309 309 316 319 317 315 323 320 317 309 306 307 299 296 303 288 282 139 98 134 150 155 155 161 163 164 164 152 147 149 148 145 153
313 320 303 302 325 320 320 318 313 317 312 304 312 317 322 330 328 321 319 319 321 328 347 339 331 335 354 18 72 100 124 145 153 150 145 148 152 149 145 141 139 134 132 134
328 315 311 324 327 329 322 320 321 310 305 307 333 337 327 337 336 333 338 354 352 352 354 350 357 15 25 26 54 69 98 110 115 119 125 127 132 136 138 136 133 130 128 125
310 318 315 331 333 329 323 326 315 311 315 333 339 346 347 350 344 336 338 15 2 348 351 2 18 25 24 32 45 67 93 107 109 114 120 122 123 124 128 128 127 124 126 124
317 319 320 319 316 320 327 330 325 331 332 349 5 5 356 1 7 360 6 15 2 357 4 17 23 28 29 33 45 53 69 88 96 102 106 108 115 119 121 121 119 119 116 115
306 316 305 308 320 325 340 342 337 333 346 359 3 359 352 356 352 42 24 7 359 3 14 17 18 29 36 44 56 69 74 78 86 92 98 105 109 111 113 115 110 113 114 115
316 316 301 313 313 312 321 350 348 344 350 10 5 353 7 25 22 21 12 5 7 3 24 25 19 27 37 50 52 60 68 76 85 91 96 100 104 107 109 107 109 114 113 122
306 311 302 304 306 303 335 345 342 342 339 348 0 336 348 23 41 41 65 33 11 21 27 21 27 32 47 50 60 68 70 76 82 85 88 92 96 100 102 105 107 110 113 112
295 302 303 295 303 316 331 337 320 344 338 332 1 356 359 40 49 37 28 53 37 27 26 24 31 41 47 57 64 70 77 83 87 89 88 90 94 97 101 105 109 112 113 118
296 290 293 293 291 305 317 317 321 338 345 350 25 13 28 48 51 54 53 37 41 36 40 35 35 48 53 60 64 72 81 85 85 88 94 96 99 101 104 109 112 113 118 120
263 260 276 274 271 288 319 320 312 329 359 2 30 5 16 39 45 56 57 62 49 35 28 33 49 51 59 62 68 74 80 82 88 97 97 101 104 108 114 115 116 118 119 120